This is the latest recevied weather packets stored in our database for station/object IW1RCO-13. If no packets are shown the sender has not sent any weather packets the latest 10 day(s).
| Time | Temp. | Humidity | Pressure | Rain* | Wind** | Luminosity | Snow |
|---|---|---|---|---|---|---|---|
| 1788640167 | 20.56° C | 87% | 1019.5 hPa | - | - | - | - |
| 1788639870 | 20.56° C | 87% | 1019.5 hPa | - | - | - | - |
| 1788639573 | 21.11° C | 87% | 1019.3 hPa | - | - | - | - |
| 1788639270 | 20.56° C | 88% | 1019.6 hPa | - | - | - | - |
| 1788638973 | 20.56° C | 88% | 1019.2 hPa | - | - | - | - |
| 1788638670 | 20.56° C | 88% | 1019.9 hPa | - | - | - | - |
| 1788638373 | 20.56° C | 88% | 1019.6 hPa | - | - | - | - |
| 1788638069 | 20.56° C | 88% | 1019 hPa | - | - | - | - |
| 1788637773 | 21.11° C | 89% | 1019 hPa | - | - | - | - |
| 1788637469 | 21.11° C | 89% | 1019.9 hPa | - | - | - | - |
| 1788637172 | 21.11° C | 90% | 1018.9 hPa | - | - | - | - |
| 1788636869 | 21.67° C | 88% | 1019.8 hPa | - | - | - | - |
| 1788633571 | 22.22° C | 86% | 1018.4 hPa | - | - | - | - |
| 1788633267 | 22.22° C | 89% | 1017.8 hPa | - | - | - | - |
| 1788632971 | 21.67° C | 88% | 1017.9 hPa | - | - | - | - |
| 1788632667 | 22.22° C | 87% | 1017.9 hPa | - | - | - | - |
| 1788632370 | 22.22° C | 88% | 1018 hPa | - | - | - | - |
| 1788632074 | 22.22° C | 87% | 1017.9 hPa | - | - | - | - |
| 1788631770 | 22.22° C | 87% | 1018 hPa | - | - | - | - |
| 1788631473 | 22.22° C | 88% | 1017.4 hPa | - | - | - | - |
| 1788631170 | 22.22° C | 88% | 1017.3 hPa | - | - | - | - |
| 1788630873 | 22.78° C | 87% | 1017.4 hPa | - | - | - | - |
| 1788630569 | 22.78° C | 87% | 1017.8 hPa | - | - | - | - |
| 1788630273 | 22.78° C | 87% | 1018.3 hPa | - | - | - | - |
| 1788629969 | 23.33° C | 86% | 1017.4 hPa | - | - | - | - |
* Rain since midnight (hover to see other rain measurements)
** Current wind speed in m/s (hover to see current wind gust speed)